星链-32446 (STARLINK-32446)

导读 | 豆包AI

STARLINK-32446是美国(US)SpaceX星链计划的一颗卫星,于2024年9月25日发射,属于低轨卫星星座建设的组成部分,承担卫星互联网服务任务,可为全球偏远地区、海上与空中移动载体提供高速低延迟的互联网连接,是星链大规模组网进程中部署的卫星单元,进一步扩大了星链星座的服务覆盖范围。

基本信息
目录编号:
61262
目录名称:
STARLINK-32446
国际标识:
2024-175V
轨道中心:
EARTH
卫星名称:
星链-32446
卫星全名:
星链-32446 (STARLINK-32446)
卫星状态:
在轨 (已飞行583 天)
发射日期:
2024-09-25 UTC
国别 :
美国 (US)
星等 :
--
轨道信息
数据来源 国际轨道数据
星历时间: 2026-04-30T21:27:13+0800
13小时前
查看轨道信息
半长轴: 6853.325km
偏心率: 0.0001292
轨道倾角: 53.162°
近地点辐角 102.148°
升交点赤经 313.222°
平近点角 257.966°
近地点: 474.302km
远地点: 476.074km
周期: 94.105分钟
每日圈数: 15.302093
详细信息
固有亮度:
5
最大亮度:
2.5
卫星平台:
Starlink V1.0
覆盖范围:
全球
运营商:
太空探索技术公司
运营商所在国:
美国
制造商(研发单位):
太空探索技术公司
制造商所在国:
美国
使用方式:
暂无
卫星简介
Starlink 计划是 SpaceX 推出的全球卫星互联网项目,通过发射低轨道卫星,为全球尤其是偏远地区提供高速、低延迟的互联网服务。自 2019 年起,Starlink 已部署数千颗卫星,旨在缩小全球数字鸿沟,推动互联网普及。该项目还为军事、航空等行业提供通信支持,带来广泛经济效益。
2D轨道图
3D轨道图
轨道高度分析图
轨道倾角分析图
轨道综合分析图
查看轨道综合分析图